Location: Boca do Mato
(22.9085°S, 43.2930°W)
Time: 00:16:25
(UTC+00:00)

Envisat - Visible Passes

Search period start: 21 September 2020 00:00
Search period end: 01 October 2020 00:00
Orbit: 764 x 766 km, 98.1° (Epoch: 20 September)

Date Brightness Start Highest point End Pass type
(mag) Time Alt. Az. Time Alt. Az. Time Alt. Az.
21 Sep 4.1 07:58:21 10° NNE 08:03:13 49° ESE 08:08:09 10° S visible
21 Sep 6.1 21:57:36 10° SW 22:00:36 16° WSW 22:03:35 10° WNW visible
22 Sep 5.8 07:23:08 10° ENE 07:26:41 19° ESE 07:30:15 10° SSE visible
22 Sep 4.6 21:19:20 10° S 21:24:05 40° WSW 21:28:49 10° NW visible
24 Sep 4.7 07:47:17 10° NE 07:51:55 37° ESE 07:56:36 10° S visible
24 Sep 5.8 21:45:36 10° SSW 21:49:21 21° WSW 21:53:05 10° WNW visible
25 Sep 6.1 07:12:43 10° ENE 07:15:26 15° ESE 07:18:10 10° SE visible
25 Sep 4.0 21:07:48 10° S 21:12:47 53° WSW 21:17:43 10° NNW visible
26 Sep 3.4 08:12:11 10° NNE 08:17:14 73° ESE 08:22:21 10° S visible
26 Sep 6.5 22:13:41 10° WSW 22:14:31 10° WSW 22:15:20 10° WSW visible
27 Sep 5.3 07:36:21 10° NE 07:40:38 28° ESE 07:44:57 10° SSE visible
27 Sep 5.4 21:33:48 10° SSW 21:38:05 27° WSW 21:42:19 10° NW visible
28 Sep 6.5 07:03:06 10° E 07:04:12 11° ESE 07:05:18 10° SE visible
29 Sep 3.9 08:00:59 10° NNE 08:05:55 54° ESE 08:10:55 10° S visible
29 Sep 6.2 22:00:38 10° SW 22:03:16 14° WSW 22:05:54 10° W visible
30 Sep 5.7 07:25:35 10° ENE 07:29:22 21° ESE 07:33:10 10° SSE visible
30 Sep 4.8 21:22:08 10° S 21:26:47 36° WSW 21:31:24 10° NW visible
